Date,TemperatureHighF,TemperatureAvgF,TemperatureLowF,DewpointHighF,DewpointAvgF,DewpointLowF,HumidityHigh,HumidityAvg,HumidityLow,PressureMaxIn,PressureMinIn,WindSpeedMaxMPH,WindSpeedAvgMPH,GustSpeedMaxMPH,PrecipitationSumIn
2013-1-15,56,51,48,46,40,-100,77,69,64,29.91,0.00,28,-5,0,0.06
2013-1-16,55,54,50,50,46,39,83,76,62,29.90,29.61,33,14,0,0.00
2013-1-17,56,51,46,51,44,40,86,77,61,29.79,29.60,19,7,0,0.00
2013-1-18,58,55,52,54,49,40,89,81,61,29.76,29.50,17,6,0,0.00
2013-1-19,60,57,51,55,53,49,94,87,75,29.48,29.06,23,11,0,0.21
2013-1-20,55,52,49,50,44,38,92,73,60,29.58,29.08,18,9,0,0.06
2013-1-21,56,53,51,49,42,34,81,67,51,29.82,29.52,23,12,0,0.00
2013-1-22,54,51,45,47,39,34,85,65,51,29.84,29.52,31,10,0,0.09
2013-1-23,51,49,43,41,35,32,89,60,50,29.78,29.54,38,13,0,0.08
2013-1-24,54,50,45,48,42,34,91,75,52,29.77,29.51,24,11,0,0.20
2013-1-25,54,48,40,42,38,36,86,69,56,29.90,29.73,22,6,0,0.01
2013-1-26,56,51,45,48,44,38,88,77,62,30.08,29.71,16,6,0,0.02
2013-1-27,58,53,45,54,50,42,93,88,79,30.08,29.83,10,5,0,0.00
2013-1-28,57,52,47,52,46,41,92,78,56,30.29,29.80,25,8,0,0.09
2013-1-29,59,51,45,51,46,39,92,82,68,30.35,30.28,10,2,0,0.00
2013-1-30,58,53,48,54,50,45,95,90,81,30.32,30.25,11,5,0,0.02
2013-1-31,67,57,50,51,48,44,96,73,50,30.41,30.31,6,2,0,0.00
2013-2-1,59,54,48,56,52,47,97,92,84,30.31,29.76,10,4,0,0.01
2013-2-2,58,53,49,52,43,36,85,68,54,29.82,29.59,25,13,0,0.02
2013-2-3,50,47,42,37,30,26,65,54,39,30.29,29.81,28,8,0,0.00
2013-2-4,55,50,41,45,39,27,85,69,49,30.35,30.27,17,6,0,0.00
2013-2-5,58,54,50,53,50,45,92,86,78,30.27,29.93,13,6,0,0.00
2013-2-6,54,52,48,51,40,35,92,66,51,29.92,29.75,23,11,0,0.01
2013-2-7,51,48,44,39,33,22,77,57,35,30.03,29.75,24,13,0,0.01
2013-2-8,53,47,42,41,37,30,84,69,52,30.02,29.84,16,5,0,0.00
2013-2-9,47,44,39,38,33,26,84,66,45,30.13,29.94,19,6,0,0.01
2013-2-10,56,52,47,49,43,36,85,71,58,30.10,29.68,20,11,0,0.00
2013-2-11,55,52,49,50,38,31,86,60,41,29.69,29.56,21,10,0,0.01
2013-2-12,53,50,46,42,36,30,83,61,47,29.93,29.61,20,9,0,0.02
2013-2-13,55,50,46,45,42,39,80,72,65,30.09,29.89,15,4,0,0.03
2013-2-14,57,50,44,50,44,38,89,80,71,30.16,30.09,10,2,0,0.00
2013-2-15,60,53,48,53,47,41,95,80,51,30.14,30.05,14,3,0,0.01
2013-2-16,58,51,47,46,44,41,87,77,61,30.14,30.06,7,2,0,0.00
2013-2-17,55,51,46,49,47,43,91,86,76,30.06,29.89,10,2,0,0.00
2013-2-18,60,53,49,52,49,47,94,88,69,29.92,29.83,10,1,0,0.00
2013-2-19,58,51,46,50,46,40,94,82,67,29.95,29.88,9,4,0,0.01
2013-2-20,58,51,46,48,42,34,88,72,45,29.91,29.84,9,4,0,0.00
2013-2-21,58,54,49,53,50,47,94,87,77,29.88,29.66,25,5,0,0.00
2013-2-22,59,55,51,52,50,46,91,82,65,29.66,29.46,26,7,0,0.09
2013-2-23,53,45,40,49,39,30,94,79,60,29.83,29.31,33,9,0,0.02
2013-2-24,50,44,38,36,32,28,86,64,47,29.92,29.84,16,7,0,0.02
2013-2-25,45,38,36,39,35,33,92,87,73,30.03,29.91,12,4,0,0.07
2013-3-3,60,53,46,48,42,-100,91,72,55,30.02,29.93,11,-16,0,0.00
2013-3-4,61,54,48,53,50,46,94,88,73,29.93,29.61,17,6,0,0.04
2013-3-5,66,58,54,54,52,50,93,83,60,29.61,29.27,15,6,0,0.06
2013-3-6,60,56,53,55,54,51,94,90,83,29.55,29.25,22,10,0,0.01
2013-3-7,65,58,54,57,54,51,94,85,65,29.71,29.55,13,6,0,0.00
2013-3-8,63,58,55,55,53,51,94,84,72,29.77,29.60,18,7,0,0.01
2013-3-9,62,57,54,54,53,51,94,85,68,29.75,29.68,14,6,0,0.01
2013-3-10,60,56,54,54,51,48,94,83,65,29.68,29.61,20,10,0,0.01
2013-3-11,58,55,52,51,49,46,87,78,70,29.69,29.60,22,13,0,0.00
2013-3-12,58,55,53,50,47,44,88,75,64,29.63,29.49,23,11,0,0.00
2013-3-13,54,49,42,50,44,38,90,81,59,29.59,29.34,27,9,0,0.07
2013-3-14,52,48,43,37,34,28,76,59,41,29.80,29.60,27,11,0,0.01
2013-3-15,54,49,45,38,34,32,70,58,44,30.06,29.79,20,8,0,0.00
2013-3-16,57,49,42,44,40,34,83,72,58,30.06,29.83,12,3,0,0.00
2013-3-17,64,55,47,53,48,43,94,81,49,29.82,29.46,16,3,0,0.09
2013-3-18,59,55,49,53,49,40,94,80,56,29.75,29.43,16,7,0,0.11
2013-3-19,62,54,48,53,50,46,96,86,66,29.74,29.56,13,2,0,0.01
2013-3-20,60,54,49,54,49,43,95,82,60,30.09,29.51,14,4,0,0.00
2013-3-21,59,54,49,54,50,45,93,87,80,30.10,29.93,11,3,0,0.01
2013-3-22,66,56,48,55,51,47,96,84,57,29.93,29.70,10,2,0,0.01
2013-3-23,61,56,54,54,52,49,95,85,66,29.72,29.56,12,4,0,0.01
2013-3-24,60,56,53,54,52,51,94,87,74,29.59,29.48,16,5,0,0.02
2013-3-25,60,57,51,52,49,43,91,76,54,29.74,29.59,20,8,0,0.01
2013-3-26,62,58,56,54,53,51,92,83,76,29.67,29.55,22,8,0,0.06
2013-3-27,64,58,55,56,54,53,94,86,71,29.67,29.54,11,5,0,0.00
2013-3-28,63,59,56,56,54,52,95,84,66,29.83,29.62,13,5,0,0.00
2013-3-29,63,58,56,56,54,52,91,84,75,29.84,29.69,15,6,0,0.00
2013-3-30,66,60,57,55,50,44,86,71,45,29.79,29.60,20,9,0,0.00
2013-3-31,63,58,55,54,50,45,87,74,59,29.78,29.63,11,4,0,0.00
2013-4-1,61,58,54,56,53,46,95,83,66,29.62,29.41,22,9,0,0.23
2013-4-2,60,55,49,53,49,44,92,81,70,29.77,29.60,18,6,0,0.00
2013-4-3,67,59,52,52,47,42,88,68,42,29.78,29.55,17,4,0,0.00
2013-4-4,60,57,54,54,52,49,92,82,68,29.57,29.43,16,6,0,0.00
2013-4-5,62,56,49,53,50,46,92,80,60,29.69,29.55,14,4,0,0.22
2013-4-6,55,48,44,46,40,35,91,74,51,29.93,29.68,19,8,0,0.17
2013-4-7,58,53,48,47,43,38,75,70,60,30.01,29.92,17,6,0,0.00
2013-4-8,61,57,53,55,51,46,88,82,74,29.92,29.81,15,5,0,0.00
2013-4-9,64,58,54,55,52,50,91,82,64,29.92,29.82,15,5,0,0.01
2013-4-10,65,58,50,58,54,49,95,85,65,30.03,29.89,10,4,0,0.01
2013-4-11,63,59,57,58,56,54,92,88,82,30.02,29.83,13,5,0,0.00
2013-4-12,65,60,56,56,53,49,92,78,60,30.06,29.86,14,5,0,0.00
2013-4-13,72,61,55,55,50,46,86,70,41,30.21,30.06,10,2,0,0.00
2013-4-14,76,64,55,49,41,35,77,46,27,30.22,30.17,12,4,0,0.00
2013-4-15,78,65,56,50,46,41,71,53,27,30.18,30.10,9,4,0,0.00
2013-4-16,70,60,55,60,54,48,90,80,61,30.16,30.10,10,2,0,0.00
2013-4-17,72,62,55,60,53,43,91,74,39,30.18,30.12,9,2,0,0.00
2013-4-18,72,64,56,54,48,38,86,61,32,30.15,30.08,9,2,0,0.00
2013-4-19,73,61,54,58,49,43,76,64,52,30.16,30.04,19,5,0,0.00
2013-4-20,63,57,52,50,44,36,77,63,53,30.17,30.09,13,5,0,0.00
2013-4-21,64,58,53,51,48,46,87,70,62,30.12,30.00,12,4,0,0.00
2013-4-22,61,55,50,52,49,45,91,81,66,30.08,29.98,10,2,0,0.10
2013-4-23,67,58,49,50,45,41,85,66,41,30.16,30.06,18,5,0,0.00
2013-4-24,65,57,51,54,51,47,90,80,58,30.16,30.01,22,10,0,0.05
2013-4-25,61,58,56,57,55,54,93,90,82,30.00,29.85,26,11,0,0.43
2013-4-26,62,59,57,59,57,55,95,93,87,29.92,29.77,12,3,0,0.60
2013-4-27,59,56,51,57,54,49,96,94,88,29.78,29.63,16,4,0,0.16
2013-4-28,62,56,51,59,54,49,96,93,88,29.76,29.61,19,8,0,0.51
2013-4-29,56,54,52,55,53,51,96,96,94,29.82,29.68,18,6,0,0.56
2013-4-30,57,54,52,52,50,48,96,87,78,29.97,29.81,11,5,0,0.00
2013-5-1,65,58,51,55,52,48,92,80,66,30.02,29.95,10,2,0,0.01
2013-5-2,67,59,51,56,52,47,88,78,62,30.02,29.94,11,3,0,0.00
2013-5-3,66,60,54,57,52,48,85,76,57,30.05,29.97,11,3,0,0.00
2013-5-4,69,60,54,54,50,46,85,73,45,30.12,30.03,11,3,0,0.00
2013-5-5,66,60,56,58,55,52,91,83,64,30.12,30.06,12,4,0,0.00
2013-5-6,68,62,58,60,57,55,92,85,69,30.12,30.05,10,4,0,0.01
2013-5-7,74,65,58,61,56,49,94,77,45,30.07,29.97,12,4,0,0.01
2013-5-8,79,69,61,62,55,49,84,62,36,29.99,29.91,9,2,0,0.00
2013-5-9,79,70,64,61,56,47,80,64,34,29.97,29.90,12,3,0,0.00
2013-5-10,75,67,60,60,55,48,84,67,46,30.07,29.89,16,5,0,0.00
2013-5-11,70,62,55,56,52,50,83,71,58,30.12,30.03,11,3,0,0.00
2013-5-12,67,61,55,58,54,51,88,79,71,30.15,30.08,11,3,0,0.00
2013-5-13,68,61,54,59,54,49,89,79,69,30.16,30.03,13,3,0,0.00
2013-5-14,72,63,57,60,56,53,89,79,64,30.05,29.71,13,3,0,0.00
2013-5-15,68,62,58,61,58,54,90,86,73,29.71,29.45,10,2,0,0.01
2013-5-16,64,60,56,60,53,45,92,78,52,29.60,29.40,11,5,0,0.08
2013-5-17,67,61,53,56,50,42,77,67,54,29.64,29.52,21,8,0,0.00
2013-5-18,64,61,56,57,52,46,94,74,55,29.86,29.61,22,11,0,0.30
2013-5-19,64,61,58,52,49,46,72,65,57,30.02,29.86,21,10,0,0.00
2013-5-20,66,59,54,54,50,46,79,70,61,30.04,29.99,7,2,0,0.00
2013-5-21,62,56,54,54,51,49,91,84,67,30.03,29.82,16,5,0,0.28
2013-5-22,67,61,54,57,54,49,86,78,65,29.90,29.84,15,6,0,0.02
2013-5-23,67,62,55,58,54,49,86,76,65,29.93,29.85,12,5,0,0.00
2013-5-24,70,60,54,55,48,40,87,65,38,30.01,29.89,14,6,0,0.00
2013-5-25,68,60,52,53,46,39,89,64,36,30.06,29.94,16,5,0,0.00
2013-5-26,66,59,52,52,49,47,85,70,56,30.09,29.95,16,4,0,0.00
2013-5-27,65,59,53,59,54,48,90,84,78,29.98,29.78,10,3,0,0.00
2013-5-28,69,64,59,61,58,53,93,81,67,29.80,29.72,12,5,0,0.00
2013-5-29,66,60,56,54,50,44,88,71,49,29.87,29.77,16,4,0,0.00
2013-5-30,68,61,55,52,49,44,85,67,43,29.93,29.80,15,6,0,0.00
2013-5-31,70,63,59,56,50,46,83,64,46,29.96,29.81,18,9,0,0.00
2013-6-1,69,63,60,57,54,50,82,72,59,30.02,29.91,15,7,0,0.00
2013-6-2,76,67,58,54,50,46,80,57,37,30.03,29.98,9,3,0,0.00
2013-6-3,73,65,58,57,52,47,78,64,41,30.04,29.98,12,3,0,0.00
2013-6-4,73,66,59,58,54,47,89,70,44,30.02,29.94,12,3,0,0.00
2013-6-5,75,67,59,56,53,49,86,63,43,29.96,29.89,13,3,0,0.00
2013-6-6,76,68,59,61,54,48,86,63,40,30.05,29.93,10,3,0,0.00
2013-6-7,73,67,60,62,60,55,92,78,64,30.05,29.95,13,3,0,0.00
2013-6-8,71,66,62,63,58,49,92,77,48,30.00,29.89,18,6,0,0.04
2013-6-9,72,66,59,61,58,54,88,76,64,29.91,29.82,18,7,0,0.05
2013-6-10,76,68,61,61,58,56,87,74,55,30.02,29.86,10,4,0,0.00
2013-6-11,73,68,62,66,63,60,93,83,68,30.06,30.00,11,4,0,0.01
2013-6-12,79,72,63,63,57,45,82,61,35,30.12,30.05,14,3,0,0.00
2013-6-13,86,74,65,63,55,48,79,54,32,30.09,30.00,11,2,0,0.00
2013-6-14,82,73,65,63,58,50,79,61,44,30.03,29.97,12,3,0,0.00
2013-6-15,88,76,65,62,54,47,80,49,27,30.01,29.95,14,3,0,0.00
2013-6-16,89,79,70,59,53,45,64,42,23,29.98,29.84,16,4,0,0.00
2013-6-17,88,80,70,70,65,59,89,62,41,29.85,29.73,15,4,0,0.00
2013-6-18,75,70,67,67,65,61,91,85,77,29.83,29.72,14,5,0,0.00
2013-6-19,75,69,64,65,61,59,90,77,59,29.97,29.80,12,5,0,0.00
2013-6-20,75,69,62,66,62,59,90,80,68,30.05,29.95,11,4,0,0.00
2013-6-21,78,70,65,67,63,58,92,78,56,30.09,30.00,9,2,0,0.01
2013-6-22,78,71,66,65,62,55,86,73,54,30.12,30.05,13,4,0,0.00
2013-6-23,77,71,66,67,64,62,89,79,62,30.12,30.07,12,3,0,0.00
2013-6-24,73,68,65,63,60,57,87,74,64,30.18,30.12,7,2,0,0.00
2013-6-25,74,31,65,60,-30,-100,75,30,62,30.19,30.14,13,3,0,0.00
2013-6-26,74,68,62,60,58,55,83,71,60,30.20,30.16,11,2,0,0.00
2013-6-27,80,69,59,61,57,51,85,66,40,30.20,30.10,13,4,0,0.00
2013-6-28,75,69,64,61,57,53,76,64,51,30.21,30.13,10,3,0,0.00
2013-6-29,77,70,64,64,60,56,82,71,61,30.23,30.16,13,4,0,0.00
2013-6-30,78,72,65,65,61,59,86,70,53,30.18,30.03,14,4,0,0.00
2013-7-1,78,71,64,67,62,58,83,74,61,30.05,29.94,10,2,0,0.00
2013-7-2,78,71,62,66,63,59,89,77,62,30.02,29.95,16,4,0,0.00
2013-7-3,77,71,66,68,65,62,89,82,72,30.07,29.96,12,2,0,0.00
2013-7-4,79,74,68,68,66,63,89,77,60,30.14,30.04,14,4,0,0.00
2013-7-5,84,75,68,68,64,55,91,71,43,30.17,30.11,12,4,0,0.00
2013-7-6,81,73,66,68,62,57,82,69,57,30.17,30.12,10,2,0,0.00
2013-7-7,86,78,69,67,62,56,87,60,38,30.14,30.07,9,2,0,0.00
2013-7-8,84,77,70,70,64,58,72,64,52,30.10,30.05,9,2,0,0.00
2013-7-9,83,77,70,70,65,58,79,66,54,30.09,29.98,13,2,0,0.00
2013-7-10,84,76,71,70,68,64,89,76,55,30.01,29.86,13,2,0,0.00
2013-7-11,84,77,71,71,68,60,90,74,45,29.92,29.82,10,2,0,0.00
2013-7-12,87,78,69,70,66,56,89,70,38,29.98,29.90,10,2,0,0.00
2013-7-13,85,77,72,68,62,56,82,63,42,30.02,29.92,9,2,0,0.00
2013-7-14,86,77,69,67,63,58,83,62,41,30.06,29.98,11,2,0,0.00
2013-7-15,89,79,73,69,64,58,82,61,37,30.08,30.03,12,3,0,0.00
2013-7-16,87,80,72,70,67,62,84,66,51,30.09,30.02,13,3,0,0.00
2013-7-17,87,80,72,69,62,52,65,54,44,30.08,30.02,8,2,0,0.00
2013-7-18,87,79,72,72,66,61,81,67,47,30.06,30.00,13,3,0,0.00
2013-7-19,89,79,71,72,67,63,84,66,46,30.04,29.91,14,4,0,0.00
2013-7-20,94,81,70,68,63,55,89,57,27,29.95,29.86,13,5,0,0.00
2013-7-21,93,82,71,69,64,59,84,58,35,30.00,29.91,13,3,0,0.00
2013-7-22,85,79,72,74,70,66,90,74,53,30.00,29.93,9,3,0,0.01
2013-7-23,84,78,72,72,69,66,88,75,54,29.96,29.91,17,3,0,0.00
2013-7-24,83,76,72,73,70,66,91,80,60,30.00,29.94,7,1,0,0.00
2013-7-25,93,81,73,74,66,50,91,65,24,30.00,29.92,11,2,0,0.01
2013-7-26,95,83,70,71,66,60,90,59,33,29.94,29.80,21,4,0,0.00
2013-7-27,93,82,75,77,72,68,88,73,45,29.84,29.74,10,4,0,0.00
2013-7-28,86,80,75,75,72,68,90,77,58,29.97,29.78,12,5,0,0.00
2013-7-29,91,81,75,72,67,53,85,65,32,30.16,29.94,11,6,0,0.00
2013-7-30,85,79,71,69,66,61,86,67,47,30.20,30.11,12,3,0,0.00
2013-7-31,87,79,73,72,68,58,83,69,38,30.13,29.98,12,4,0,0.00
2013-8-1,88,78,69,70,66,58,91,71,40,30.00,29.95,14,3,0,0.01
2013-8-2,91,82,72,70,64,58,81,58,34,30.02,29.95,12,3,0,0.00
2013-8-3,93,82,72,70,65,61,76,58,37,30.05,29.96,13,4,0,0.00
2013-8-4,91,82,74,71,65,60,78,58,38,30.07,30.01,15,3,0,0.00
2013-8-5,91,81,73,75,67,58,86,64,38,30.02,29.93,13,3,0,0.00
2013-8-6,93,83,72,76,71,65,90,71,40,29.96,29.80,13,3,0,0.00
2013-8-7,86,80,76,77,75,73,91,83,73,29.82,29.73,14,4,0,0.00
2013-8-8,89,79,72,75,66,59,90,66,45,30.10,29.77,17,5,0,0.00
2013-8-9,83,76,68,66,62,58,74,64,55,30.14,30.08,15,5,0,0.00
2013-8-10,83,77,70,69,65,60,78,67,53,30.11,30.04,11,3,0,0.00
2013-8-11,84,77,71,71,68,66,86,73,58,30.07,29.99,12,3,0,0.00
2013-8-12,87,79,72,72,69,67,86,72,55,30.01,29.92,12,3,0,0.00
2013-8-13,90,79,71,72,67,59,85,67,35,29.99,29.93,11,2,0,0.00
2013-8-14,90,80,72,68,65,60,83,62,42,30.01,29.97,14,4,0,0.00
2013-8-15,85,78,72,71,67,63,78,69,59,30.05,30.00,11,3,0,0.00
2013-8-16,85,78,73,73,70,67,87,77,66,30.04,29.98,12,3,0,0.00
2013-8-17,84,78,72,72,69,66,85,73,61,30.03,29.96,12,3,0,0.00
2013-8-18,85,78,72,72,69,68,88,75,58,30.04,29.98,15,2,0,0.00
2013-8-19,88,79,72,71,70,64,90,74,47,30.07,30.00,12,3,0,0.00
2013-8-20,86,78,73,70,65,59,84,65,46,30.10,30.05,15,5,0,0.00
2013-8-21,84,76,68,67,60,53,69,58,43,30.09,30.01,12,2,0,0.00
2013-8-22,84,76,70,66,64,60,79,65,46,30.02,29.91,10,2,0,0.00
2013-8-23,84,77,70,70,67,63,83,71,59,29.95,29.91,13,2,0,0.00
2013-8-24,84,77,70,72,68,66,89,74,60,29.93,29.88,11,2,0,0.00
2013-8-25,79,75,72,68,66,63,83,74,62,29.93,29.80,10,3,0,0.00
2013-8-26,78,73,70,69,68,66,92,82,67,29.85,29.78,8,3,0,0.61
2013-8-27,80,73,66,68,66,64,94,80,63,29.94,29.82,11,3,0,0.37
2013-8-28,84,74,68,65,62,57,85,70,45,30.00,29.91,10,3,0,0.00
2013-8-29,82,74,68,64,61,56,81,65,46,30.02,29.94,12,6,0,0.00
2013-8-30,77,72,68,64,62,57,80,70,61,30.07,29.95,16,4,0,0.00
2013-8-31,83,74,68,62,60,58,76,61,44,30.10,30.04,15,5,0,0.00
2013-9-1,83,75,67,63,59,55,73,59,40,30.13,30.07,20,4,0,0.00
2013-9-2,84,75,68,65,61,56,74,64,43,30.17,30.10,10,3,0,0.00
2013-9-3,85,77,70,67,64,61,82,66,46,30.17,30.09,9,3,0,0.00
2013-9-4,86,75,67,69,64,55,88,71,36,30.14,30.02,14,3,0,0.00
2013-9-5,82,74,67,71,67,64,91,78,66,30.02,29.87,10,3,0,0.00
2013-9-6,82,75,69,71,67,64,89,77,64,29.93,29.85,12,2,0,0.00
2013-9-7,81,74,69,70,67,65,90,80,63,30.05,29.92,13,3,0,0.00
2013-9-8,77,74,71,70,68,66,91,83,76,30.13,29.99,9,2,0,0.11
2013-9-9,80,72,69,70,67,65,92,84,62,30.16,30.11,7,1,0,0.33
2013-9-10,80,73,67,70,66,64,95,82,65,30.12,30.01,10,2,0,0.01
2013-9-11,77,70,64,68,64,59,88,79,63,30.08,30.00,13,4,0,2.75
2013-9-12,79,71,64,63,60,57,82,70,55,30.12,30.05,7,2,0,0.00
2013-9-13,79,71,64,66,63,60,88,75,61,30.17,30.11,12,2,0,0.00
2013-9-14,80,72,65,66,63,61,88,76,60,30.17,30.00,15,2,0,0.00
2013-9-15,82,74,69,73,68,65,89,82,72,30.00,29.87,10,3,0,0.00
2013-9-16,79,72,66,71,67,63,92,85,71,29.95,29.80,12,3,0,0.00
2013-9-17,82,73,67,70,66,63,90,81,57,29.94,29.80,10,3,0,0.06
2013-9-18,80,72,65,67,64,62,92,78,60,29.94,29.85,11,3,0,0.00
2013-9-19,83,73,67,67,64,60,90,75,55,29.95,29.84,11,2,0,0.00
2013-9-20,80,71,65,69,63,60,89,77,65,30.09,29.95,10,1,0,0.00
2013-9-21,80,72,66,70,65,61,90,80,64,30.18,30.09,11,2,0,0.00
2013-9-22,82,72,64,66,63,60,90,75,56,30.21,30.14,10,2,0,0.01
2013-9-23,79,70,64,68,63,59,87,78,66,30.16,30.05,9,2,0,0.00
2013-9-24,79,70,64,65,62,59,88,76,61,30.05,29.95,9,2,0,0.00
2013-9-25,79,71,64,65,62,60,87,76,59,29.97,29.91,9,2,0,0.00
2013-9-26,81,72,66,69,65,62,92,79,59,29.99,29.91,12,2,0,0.00
2013-9-27,87,75,67,70,66,57,95,76,36,29.94,29.80,12,3,0,0.01
2013-9-28,79,75,72,73,70,67,90,86,77,29.80,29.71,16,5,0,0.00
2013-9-29,78,74,72,70,65,62,89,73,62,29.75,29.69,24,11,0,0.00
2013-9-30,79,74,69,68,66,64,85,77,66,29.77,29.70,19,8,0,0.00
2013-10-1,82,75,69,73,70,66,93,85,74,29.81,29.73,12,4,0,0.00
2013-10-2,83,76,71,76,71,66,94,84,59,29.85,29.77,7,2,0,0.02
2013-10-3,83,75,70,72,70,68,94,85,68,29.92,29.81,15,5,0,0.01
2013-10-4,81,75,72,74,72,70,93,89,75,29.99,29.86,8,4,0,0.00
2013-10-5,80,73,67,71,65,59,91,76,56,30.14,29.99,13,4,0,0.00
2013-10-6,78,68,64,61,59,55,85,73,47,30.15,30.10,15,3,0,0.01
2013-10-7,77,67,63,63,58,56,87,75,57,30.15,30.09,10,3,0,0.06
2013-10-8,78,67,60,62,58,55,86,74,56,30.16,30.11,9,2,0,0.02
2013-10-9,73,67,63,61,58,57,85,74,63,30.15,30.04,10,2,0,0.00
2013-10-10,75,67,61,64,60,57,89,80,66,30.06,29.85,9,2,0,0.00
2013-10-11,70,64,58,62,58,54,86,79,70,29.93,29.84,14,4,0,0.01
2013-10-12,78,68,61,64,60,57,89,79,56,30.06,29.93,9,3,0,0.00
2013-10-13,78,71,66,67,64,61,88,79,64,30.09,30.03,10,2,0,0.00
2013-10-14,79,69,64,68,63,60,91,81,64,30.11,30.04,7,2,0,0.00
2013-10-15,76,71,68,68,64,62,85,80,68,30.10,29.98,16,7,0,0.00
2013-10-16,84,74,70,72,67,62,91,80,64,30.06,30.00,13,3,0,0.00
2013-10-17,79,71,65,68,65,61,91,81,62,30.10,30.03,13,2,0,0.01
2013-10-18,80,70,65,69,64,60,93,82,53,30.03,29.93,10,2,0,0.01
2013-10-19,78,70,66,68,66,63,93,85,70,30.04,29.95,8,2,0,0.00
2013-10-20,78,71,67,69,66,63,88,84,72,30.09,30.00,10,2,0,0.00
2013-10-21,79,71,65,69,66,63,94,84,68,30.09,29.98,12,1,0,0.01
2013-10-22,79,71,66,71,67,65,94,87,74,29.97,29.86,12,3,0,0.02
2013-10-23,74,71,69,68,66,63,91,84,74,30.02,29.88,13,5,0,0.00
2013-10-24,78,69,65,68,64,61,92,83,59,30.05,29.99,9,2,0,0.00
2013-10-25,81,71,65,69,65,61,95,82,61,30.01,29.93,10,4,0,0.02
2013-10-26,80,73,69,72,68,65,91,85,73,30.07,29.93,11,4,0,0.00
2013-10-27,81,72,69,71,68,66,92,86,66,30.18,30.07,18,5,0,0.01
2013-10-28,76,70,67,69,64,-100,93,86,73,30.16,29.92,11,2,0,0.01
2013-10-29,72,67,58,67,63,55,92,87,72,30.00,29.82,18,7,0,0.07
2013-10-30,64,60,56,55,48,44,89,66,52,30.12,29.98,20,7,0,0.23
2013-10-31,75,62,53,55,48,43,72,62,43,30.19,30.10,13,3,0,0.01
2013-11-1,74,64,56,56,52,46,76,67,50,30.18,30.10,11,4,0,0.00
2013-11-2,73,67,65,62,60,56,85,79,63,30.10,30.00,11,6,0,0.00
2013-11-3,78,68,62,67,61,57,88,78,60,30.02,29.96,12,5,0,0.00
2013-11-4,69,65,60,61,57,50,90,76,54,29.98,29.66,33,11,0,0.00
2013-11-5,73,68,65,64,59,52,84,72,59,29.86,29.72,26,13,0,0.00
2013-11-6,77,70,63,64,61,57,89,73,52,30.07,29.86,17,6,0,0.00
2013-11-7,76,67,62,68,63,59,93,87,75,30.07,30.00,12,4,0,0.00
2013-11-8,72,67,65,64,61,57,92,81,66,30.03,29.96,16,7,0,0.00
2013-11-9,68,63,59,61,56,47,88,79,65,30.16,30.02,11,3,0,0.00
2013-11-10,69,65,60,55,51,48,74,62,54,30.15,30.01,23,10,0,0.00
2013-11-11,67,61,58,55,49,30,78,66,34,30.11,30.03,14,4,0,0.00
2013-11-12,70,60,56,46,40,30,65,47,35,30.10,30.04,16,5,0,0.00
2013-11-13,69,61,56,61,52,45,84,72,53,30.13,30.05,10,3,0,0.00
2013-11-14,63,58,53,60,54,49,92,86,82,30.18,30.10,8,2,0,0.00
2013-11-15,57,50,45,50,44,41,89,81,69,30.10,29.95,20,7,0,0.00
2013-11-16,56,51,45,54,49,42,94,92,90,29.98,29.80,21,4,0,0.32
2013-11-17,53,51,50,51,49,48,94,92,91,29.96,29.74,8,1,0,0.44
2013-11-18,58,54,50,52,49,46,94,85,70,29.73,29.42,26,8,0,0.24
2013-11-19,61,55,52,53,51,49,92,86,74,29.80,29.36,32,8,0,1.02
2013-11-20,53,49,45,50,44,38,91,84,65,29.92,29.78,18,5,0,0.24
2013-11-21,57,54,50,46,42,37,69,63,59,29.91,29.59,27,14,0,0.00
2013-11-22,57,52,48,44,39,33,76,61,51,29.72,29.53,24,8,0,0.01
2013-11-23,58,50,45,44,38,35,76,64,52,29.79,29.66,20,4,0,0.00
2013-11-24,60,50,44,45,41,36,81,72,56,29.98,29.78,12,2,0,0.00
2013-11-25,52,49,46,46,43,38,86,80,75,30.14,29.98,7,2,0,0.03
2013-11-26,51,47,45,38,36,31,74,64,57,30.22,30.12,16,6,0,0.00
2013-11-27,49,44,42,40,38,36,87,78,70,30.22,30.15,12,4,0,0.01
2013-11-28,54,46,42,42,38,35,85,75,61,30.33,30.22,18,6,0,0.00
2013-11-29,50,45,42,43,38,35,85,78,63,30.32,30.23,12,5,0,0.00
2013-11-30,52,46,41,43,40,35,91,81,67,30.23,29.81,17,4,0,0.18
2013-12-1,52,48,44,49,44,41,93,87,79,29.99,29.84,17,8,0,0.30
2013-12-2,52,50,48,44,42,41,78,74,66,30.14,29.99,13,5,0,0.00
2013-12-3,62,55,50,54,50,43,90,82,73,30.27,30.12,13,6,0,0.01
2013-12-4,65,53,48,53,47,43,93,80,58,30.32,30.25,7,2,0,0.01
2013-12-5,68,54,48,49,44,38,86,70,44,30.30,30.23,6,2,0,0.01
2013-12-6,63,52,46,49,44,41,87,76,59,30.29,30.21,9,2,0,0.00
2013-12-7,64,52,46,50,45,40,86,78,51,30.27,30.19,10,2,0,0.00
2013-12-8,63,52,47,51,46,43,89,81,60,30.39,30.26,4,1,0,0.01
2013-12-9,62,51,47,49,46,43,88,81,61,30.45,30.39,5,1,0,0.00
2013-12-10,62,51,45,49,45,42,89,80,62,30.52,30.43,4,0,0,0.01
2013-12-11,59,51,46,52,45,-100,87,82,73,30.53,30.46,6,-10,0,0.00
2013-12-12,65,53,48,53,48,45,92,83,62,30.48,30.34,4,0,0,0.01
2013-12-13,62,52,46,52,47,44,92,84,68,30.34,30.24,6,1,0,0.02
2013-12-14,62,52,46,50,46,43,91,82,58,30.50,30.32,9,-30,0,0.00
2013-12-15,63,53,48,55,48,43,92,83,70,30.51,30.45,11,3,0,0.01
2013-12-16,60,52,48,52,48,45,91,84,69,30.48,30.41,9,2,0,0.01
2013-12-17,59,53,50,53,50,47,91,87,78,30.41,30.29,9,2,0,0.01
2013-12-18,61,54,49,54,49,47,95,85,69,30.30,30.21,7,2,0,0.01
2013-12-19,59,56,54,56,53,51,94,90,86,30.21,29.81,15,7,0,0.39
2013-12-20,54,51,49,53,49,47,94,92,88,30.37,29.77,26,11,0,0.18
2013-12-21,61,54,50,55,51,49,95,89,75,30.46,30.36,15,5,0,0.01
2013-12-22,62,55,51,55,51,48,94,88,74,30.45,30.36,5,1,0,0.01
2013-12-23,60,54,49,55,50,47,93,88,82,30.37,30.20,12,2,0,0.02
2013-12-24,59,57,55,54,52,51,88,84,78,30.20,29.82,26,8,0,0.00
2013-12-25,59,57,52,55,53,46,93,87,76,29.81,29.35,26,14,0,0.56
2013-12-26,56,54,52,43,38,34,65,54,48,29.93,29.44,30,14,0,0.00
2013-12-27,61,56,54,54,49,37,89,78,54,29.98,29.89,18,8,0,0.00
2013-12-28,61,57,54,56,52,44,91,83,67,30.05,29.82,19,8,0,0.01
2013-12-29,54,51,45,44,40,37,74,69,58,30.35,30.05,16,5,0,0.00
2013-12-30,56,49,42,45,40,36,80,71,56,30.37,30.27,12,3,0,0.00
2013-12-31,58,53,50,49,46,41,83,77,60,30.26,30.07,16,-16,0,0.00
2014-1-1,59,55,51,53,50,46,90,82,75,30.09,30.02,12,5,0,0.00
2014-1-2,61,57,55,56,53,51,92,87,74,30.01,29.94,15,6,0,0.00